Regional Weather Roundup
Issued by NWS

Home | Current Version | Previous Version | Text Only | Print | Product List | Glossary On
Versions: 1 2 3 4 5 6 7 8 9 10 11 12 13 14 15 16 17 18 19 20 21 22 23 24 25 26 27 28 29 30 31 32 33 34 35 36 37 38 39 40 41 42 43 44 45 46 47 48 49 50
686
ASUS43 KMPX 180810
RWRMN
WEATHER ROUNDUP FOR MINNESOTA
NATIONAL WEATHER SERVICE TWIN CITIES/CHANHASSEN MN
300 AM CDT WED OCT 18 2017


NOTE: "FAIR" INDICATES FEW OR NO CLOUDS BELOW 12,000 FEET WITH NO
SIGNIFICANT WEATHER AND/OR OBSTRUCTIONS TO VISIBILITY. N/A MEANS
CURRENT SKY AND/OR WEATHER CONDITIONS ARE NOT AVAILABLE.

MNZ060>063-068>070-180900-
   Twin Cities Metro

CITY           SKY/WX    TMP DP  RH WIND       PRES   REMARKS
TWIN CITIES    CLEAR     58  46  64 SW8       29.87F
ST PAUL        CLEAR     51  46  83 SE8       29.88F
CRYSTAL        CLEAR     55  42  61 S7        29.85S
BLAINE         CLEAR     57  46  67 S9        29.85S
LAKEVILLE      CLEAR     50  45  81 S6        29.88F
EDEN PRAIRIE   CLEAR     56  45  66 SW12      29.86S
SOUTH ST PAUL  CLEAR     54  44  70 S5        29.88F
LAKE ELMO      FAIR      52  45  76 S9        29.88F
$$
MNZ001>005-007-008-013>017-022>024-027-028-180900-
   Northwest Minnesota

CITY           SKY/WX    TMP DP  RH WIND       PRES   REMARKS
BEMIDJI        CLOUDY    54  39  57 S8        29.68S
HALLOCK        CLOUDY    52  36  54 S15       29.47F
ROSEAU         CLOUDY    57  41  54 S15       29.52F
WARROAD        CLOUDY    61  43  51 SW13G22   29.53F
THIEF RVR FALL CLOUDY    59  40  49 S20G28    29.59F
CROOKSTON      CLOUDY    54  41  62 S15       29.60S
FOSSTON        CLOUDY    55  37  50 S16       29.66R
DETROIT LAKES  CLOUDY    63  37  39 S14       29.69F
MOORHEAD       CLOUDY    52  41  66 S7        29.67R
PARK RAPIDS    CLOUDY    49  39  68 SE7       29.72S
MAHNOMEN       FAIR      56  40  56 S14       29.66S
$$
MNZ006-009>011-018-025>026-180900-
   North Central Minnesota

CITY           SKY/WX    TMP DP  RH WIND       PRES   REMARKS
BAUDETTE       CLOUDY    56  40  55 S12       29.59S
FLAG ISLAND    CLOUDY    57  43  58 S13       29.49F
INTL FALLS     CLEAR     56  38  50 S8        29.63F
WASKISH        CLOUDY    63  41  45 S8        29.63S
BIG FORK       CLEAR     54  39  58 S8        29.70S
LONGVILLE      CLEAR     55  37  50 S5        29.74S
GRAND RAPIDS   CLEAR     51  39  63 S8        29.76S
CRANE LAKE     CLEAR     54  37  54 S7        29.70S
ORR            CLEAR     52  36  54 S7        29.68S
COOK           CLEAR     55  39  54 S8        29.72F
WALKER         FAIR      55  38  54 SW9       29.71S
$$
MNZ012-019>021-037-180900-
   Northeast Minnesota

CITY           SKY/WX    TMP DP  RH WIND       PRES   REMARKS
DULUTH         CLEAR     53  41  63 SW14      29.79F
ELY            CLEAR     55  37  50 S8        29.74F
HIBBING        CLEAR     42  37  82 CALM      29.75F
EVELETH        CLEAR     45  39  81 CALM      29.77S
DULUTH HARBOR  CLEAR     54  46  76 SW7       29.80S
TWO HARBORS    CLEAR     45  39  81 SW6       29.78S
SILVER BAY     CLEAR     36  34  93 CALM      29.78F
GRAND MARAIS     N/A     44  42  93 N3        29.79F
G MARAIS ARPRT CLEAR     48  39  71 S6        29.81S
$$
MNZ029>031-032-039>041-046>048-054>057-064-180900-
   West Central Minnesota

CITY           SKY/WX    TMP DP  RH WIND       PRES   REMARKS
FERGUS FALLS   CLOUDY    54  41  62 S10       29.71F
WHEATON        CLOUDY    54  39  58 S7        29.72S
MORRIS         CLOUDY    46  43  87 S9        29.74F
ALEXANDRIA     CLEAR     58  42  55 S16       29.77F
ELBOW LAKE     FAIR      52  42  70 S13       29.73F
WADENA         CLEAR     54  41  62 S6        29.73S
GLENWOOD       CLEAR     55  45  67 S16       29.78S
APPLETON       CLEAR     57  43  58 S9        29.75F
BENSON         CLEAR     52  43  71 S8        29.79S
ORTONVILLE     CLOUDY    50  41  71 N5        29.73F
MADISON        CLEAR     61  45  55 SW9       29.76F
WILLMAR        FAIR      54  45  71 S3        29.82S
$$
MNZ033>034-036-042>043-049>051-058-059-180900-
   Central Minnesota

CITY           SKY/WX    TMP DP  RH WIND       PRES   REMARKS
ST CLOUD       CLEAR     49  42  77 S8        29.81F
SAUK CENTRE    FAIR      54  43  65 S12       29.79S
PAYNESVILLE    CLEAR     57  45  64 S12       29.81S
AITKIN         CLEAR     54  39  58 S8        29.76S
PINE RIVER     CLEAR     46  36  66 S5        29.78F
BRAINERD       CLEAR     52  39  61 S12       29.77F
STAPLES        CLEAR     54  39  58 S9        29.75S
LONG PRAIRIE   FAIR      54  41  62 S9        29.78F
LITTLE FALLS   CLEAR     54  34  47 S5        29.79S
LITCHFIELD     CLEAR     54  46  76 S3        29.83F
BUFFALO        CLEAR     55  44  67 S7        29.85S
MAPLE LAKE     CLEAR     54  46  74 S5        29.84F
HUTCHINSON     CLOUDY    49  45  85 SE3       29.85F
$$
MNZ037-044-045-052-053-180900-
   East Central Minnesota

CITY           SKY/WX    TMP DP  RH WIND       PRES   REMARKS
PRINCETON      CLEAR     55  45  67 S7        29.82F
MORA           CLEAR     50  43  76 CALM      29.84S
CAMBRIDGE      CLEAR     55  43  62 S7        29.84S
RUSH CITY      MOCLDY    51  43  74 S5        29.84S
MOOSE LAKE     CLEAR     50  41  71 CALM      29.79S
HINCKLEY       FAIR      46  43  87 S5        29.83S
CLOQUET        CLEAR     52  37  58 S7        29.80S
MCGREGOR       CLEAR     48  39  71 S6        29.78S
$$
MNZ071>073-080-081-089-090-097-098-180900-
   Southwest Minnesota

CITY           SKY/WX    TMP DP  RH WIND       PRES   REMARKS
MONTEVIDEO     CLEAR     54  45  71 SW7       29.79S
GRANITE FALLS  CLEAR     53  46  76 S9        29.81F
CANBY          CLEAR     62  43  50 SW15G26   29.78F
MARSHALL       CLEAR     56  44  64 SW14      29.80F
REDWOOD FALLS  CLEAR     54  44  69 S10       29.82F
OLIVIA         CLEAR     54  45  71 S8        29.81F
PIPESTONE      CLEAR     54  45  71 S8        29.83F
WORTHINGTON    CLEAR     54  44  69 S10       29.88F
JACKSON        CLEAR     48  43  81 S9        29.89F
TRACY          CLEAR     58  46  63 SW15      29.83F
SLAYTON        CLEAR     55  36  50 S14       29.85F
$$
MNZ065>067-074>077-082>085-091>093-180900-
   South Central Minnesota

CITY           SKY/WX    TMP DP  RH WIND       PRES   REMARKS
MANKATO        CLEAR     49  44  83 S9        29.88F
NEW ULM          N/A     46  43  87 S8        29.85F
ST JAMES       CLEAR     48  45  87 S9        29.88F
FAIRMONT       CLEAR     47  43  86 S7        29.90F
GLENCOE        CLEAR     53  46  76 S6        29.85S
FARIBAULT      CLEAR     48  45  87 S5        29.91S
OWATONNA       CLEAR     52  45  76 S14       29.91F
WASECA         CLEAR     52  43  71 S8        29.91F
ALBERT LEA     CLEAR     55  46  71 S7        29.93F
$$
MNZ078>079-086>088-094>096-180900-
   Southeast Minnesota

CITY           SKY/WX    TMP DP  RH WIND       PRES   REMARKS
ROCHESTER      CLEAR     50  45  83 S15       29.95F
RED WING       CLEAR     55  41  58 SE3       29.90F
STANTON        CLEAR     53  45  73 S7        29.89S
DODGE CENTER   CLEAR     52  43  71 S10       29.93F
WINONA         CLEAR     55  45  67 CALM      29.96F
AUSTIN         CLEAR     48  43  81 S8        29.94F
PRESTON        CLEAR     51  43  75 S10       29.97F
$$
ABBREVIATIONS USED IN REMARKS
   TC - TEMPERATURES IN CELSIUS
  WCI - WIND CHILL INDEX
   HX - HEAT INDEX
  VSB - VISIBILITY
$$




USA.gov is the U.S. government's official web portal to all federal, state and local government web resources and services.